Theta_e
310 310 312 310 308 311 311 311 312 310 310 312 309 310 309 309 310 307 305 306 307 306 307 308 313 322 329 331 332 333 334 334 334 332 330 330 329 330 329 329 329 329 329 329
311 311 310 311 310 310 310 310 311 311 311 311 310 311 310 309 309 308 308 306 306 305 307 309 309 309 312 321 328 331 335 335 334 333 330 329 329 329 329 329 329 329 330 330
313 312 311 311 311 311 309 309 309 310 310 310 310 308 311 309 309 309 308 307 307 305 307 308 311 312 310 308 312 322 330 334 334 334 331 329 330 330 329 329 328 327 327 326
311 311 311 310 311 309 310 310 310 310 308 307 306 305 306 307 308 309 308 306 307 307 308 309 311 313 314 311 308 311 321 328 333 331 331 328 327 328 327 327 326 326 325 326
311 310 310 310 310 309 310 310 310 310 310 308 309 305 303 306 309 308 308 307 306 307 307 307 310 312 314 313 308 310 317 325 331 329 329 328 326 325 324 324 323 324 323 323
309 308 310 311 309 309 310 311 310 310 309 309 308 304 304 306 309 308 309 308 307 306 306 308 310 310 312 316 314 315 318 321 324 328 327 327 323 322 321 321 320 319 319 318
309 309 309 309 310 310 310 307 309 310 310 308 306 305 305 305 307 308 310 308 306 305 305 306 306 307 308 310 312 316 318 319 322 323 323 323 322 320 317 315 312 312 309 306
310 310 308 308 310 310 309 307 309 310 312 309 305 309 309 308 309 309 308 307 306 305 305 305 306 306 306 307 308 311 312 311 315 315 314 314 312 309 307 306 304 303 303 302
310 311 309 308 310 309 309 310 308 307 298 307 305 305 307 309 310 308 308 307 307 306 305 304 305 305 305 305 305 305 305 306 307 307 306 305 304 304 303 301 300 298 298 297
308 311 310 309 309 309 308 307 309 306 307 308 306 307 305 308 311 309 309 308 307 305 304 303 304 304 304 304 304 304 304 303 303 303 302 301 300 298 297 297 296 295 295 295
310 311 311 308 309 310 308 307 307 309 307 309 307 306 303 307 310 310 309 309 307 306 304 303 303 304 303 302 302 302 301 301 300 299 298 297 296 295 295 294 293 293 292 292
310 310 311 309 309 308 308 308 307 308 308 308 309 307 309 305 308 310 309 309 307 306 304 303 303 302 301 301 300 300 299 298 297 296 296 295 294 293 292 292 291 291 291 291
311 311 311 312 309 309 309 308 307 308 306 307 307 306 307 306 307 309 309 308 307 305 304 303 302 300 300 299 298 298 297 296 295 294 294 293 292 292 291 291 291 290 290 290
310 312 311 311 310 309 310 308 307 308 309 307 306 306 308 306 308 307 308 308 307 306 305 303 301 300 299 298 297 296 296 295 294 293 292 292 291 291 290 290 289 289 290 290
309 310 310 310 310 310 309 309 307 308 309 308 308 306 306 305 308 309 308 308 307 306 305 304 302 300 298 296 295 295 295 294 293 292 292 291 290 290 289 289 289 289 289 288
310 308 309 311 313 311 311 308 308 309 308 306 306 306 305 305 305 307 309 309 308 307 305 304 302 300 297 295 294 294 294 293 292 291 290 289 289 289 289 289 288 288 288 287
311 311 310 309 309 309 310 310 308 309 307 308 308 308 304 307 307 309 309 309 309 308 306 304 301 299 297 295 294 293 293 292 291 290 289 289 289 289 288 287 287 287 286 286
311 313 311 316 310 314 310 306 308 309 308 308 307 306 306 307 308 309 309 309 309 307 306 303 301 299 296 295 294 293 292 291 290 289 288 288 288 288 287 286 286 286 285 285
309 309 310 312 307 310 308 307 307 307 310 306 307 307 305 306 307 307 308 309 308 307 306 303 300 297 295 294 293 292 291 290 289 288 288 287 287 286 286 287 286 285 285 284
309 309 309 310 309 309 307 308 305 307 310 306 307 306 304 305 308 308 306 306 306 306 304 300 295 295 294 293 293 291 290 289 288 287 287 286 286 286 286 285 285 285 284 283
312 311 311 304 303 306 305 304 306 310 309 304 306 307 305 308 309 305 303 303 304 302 298 295 294 293 293 292 291 290 289 288 287 286 286 285 285 285 285 284 283 283 283 282
312 314 313 307 305 311 302 306 310 308 302 305 308 306 305 305 304 303 302 299 297 294 294 294 293 291 292 291 290 289 287 287 286 285 285 285 284 284 283 283 283 282 282 282
311 309 311 312 311 302 301 302 300 299 300 300 305 305 303 301 301 296 295 294 293 293 293 292 291 288 289 289 289 288 287 286 284 284 284 283 283 282 282 282 282 282 281 279
303 301 305 307 304 303 300 298 297 298 299 299 301 301 299 300 296 294 293 292 292 291 290 288 287 286 286 288 288 288 286 284 284 283 283 282 282 281 281 280 280 280 279 278
303 303 304 304 303 298 298 297 298 298 298 298 299 299 298 296 294 293 292 292 291 290 288 287 287 285 285 285 285 285 284 284 283 282 282 281 281 280 279 279 278 277 278 276
299 305 307 308 302 304 302 297 297 298 298 297 297 297 295 294 293 291 290 290 289 287 286 286 286 285 284 284 283 282 282 282 282 281 280 280 280 279 278 277 278 277 278 278
Wind_Speed
4 4 14 8 7 5 5 5 7 1 4 4 8 6 8 7 5 7 7 9 9 8 7 9 10 13 16 18 23 24 27 29 26 22 18 18 18 16 14 13 12 12 12 12
4 13 7 8 8 8 4 7 4 2 2 3 5 8 5 7 6 6 9 7 8 7 6 6 5 5 8 13 14 17 26 28 26 21 19 18 17 15 14 13 13 13 14 14
8 4 8 12 6 10 6 7 6 7 3 2 5 6 5 5 3 4 5 6 5 9 8 5 8 4 5 10 14 15 14 25 25 20 18 15 12 10 9 9 8 7 8 8
7 12 17 6 10 9 8 6 7 12 6 5 4 4 7 7 6 5 5 6 6 7 6 8 8 7 3 7 10 12 15 13 23 19 19 15 13 9 7 4 3 3 4 6
6 10 8 6 7 8 6 8 9 4 5 5 3 2 6 8 5 8 8 7 7 7 8 8 10 7 5 4 7 11 13 13 18 19 15 14 10 7 7 6 4 5 7 6
3 1 4 6 2 7 8 7 8 5 3 1 5 6 5 6 13 5 6 8 8 7 7 10 12 12 12 12 14 17 18 18 18 18 14 13 11 11 12 8 5 3 2 2
3 2 2 3 6 4 7 6 2 2 0 6 2 4 8 7 7 9 12 9 9 8 8 7 9 13 16 18 21 25 24 23 21 21 21 19 16 11 12 12 11 11 10 11
5 4 7 4 6 8 5 8 5 6 4 4 2 6 5 2 2 8 12 11 9 8 8 8 13 15 19 20 22 25 28 28 25 24 23 21 19 20 20 18 16 16 15 14
7 3 1 1 2 10 5 4 4 7 3 3 4 4 4 3 5 8 11 10 9 9 8 9 15 18 21 22 23 26 29 29 28 28 27 25 24 22 21 19 17 16 14 13
6 5 2 1 1 1 6 8 3 2 5 3 4 3 5 7 12 10 12 11 9 9 9 8 16 20 22 23 24 25 28 30 30 29 28 26 24 22 20 18 17 14 12 11
3 4 1 3 5 9 3 3 2 5 5 5 2 6 7 17 17 18 15 14 12 12 11 9 16 21 24 25 25 26 28 29 28 27 27 26 23 20 18 17 15 13 11 12
3 5 4 6 1 2 1 7 5 5 6 1 3 5 2 6 14 16 15 13 12 12 11 12 20 24 25 25 25 26 27 28 27 27 25 24 20 17 16 14 13 12 13 13
7 2 4 4 3 1 4 4 5 5 4 6 5 6 1 1 9 13 15 14 14 14 13 13 18 20 24 25 25 25 25 26 25 24 23 20 17 15 14 13 12 12 13 14
7 4 7 8 7 7 7 8 7 6 3 4 7 4 5 7 12 11 12 16 16 15 15 13 13 19 23 27 28 26 25 24 23 21 19 17 14 12 11 10 11 12 13 14
6 7 5 2 4 4 8 8 9 7 19 9 16 9 6 10 13 19 16 16 17 17 16 15 14 18 22 26 28 27 26 24 22 19 17 15 12 10 9 10 11 12 13 15
2 2 3 1 3 2 3 8 11 19 12 9 2 7 8 9 7 11 17 18 19 19 18 18 16 22 24 26 30 29 26 23 20 17 15 12 9 7 8 10 11 13 14 16
10 5 4 4 0 3 3 12 12 11 8 18 14 22 7 5 14 17 17 21 23 22 21 20 20 27 27 28 33 31 27 23 19 16 13 10 8 7 8 9 11 13 15 17
9 14 2 10 4 3 9 8 10 15 12 18 11 5 10 8 14 16 20 23 20 18 19 19 27 28 29 34 34 31 27 23 19 15 12 9 6 6 7 10 12 14 16 18
2 5 4 6 6 6 8 8 10 10 20 9 18 18 7 3 4 7 16 20 23 25 26 29 32 33 34 38 36 31 26 22 18 14 10 7 5 4 7 9 11 13 15 17
4 3 3 3 6 11 7 7 5 8 18 13 19 12 9 8 6 12 16 16 13 21 27 30 33 38 40 39 36 32 27 22 17 13 10 6 3 3 5 8 10 12 14 16
4 2 11 4 4 9 6 5 5 9 11 8 14 17 14 12 17 5 10 8 16 22 27 31 35 35 36 40 36 30 26 21 17 13 10 6 1 3 5 8 10 12 14 15
11 10 5 3 2 16 6 4 16 5 2 0 2 4 9 6 4 5 7 13 17 23 31 35 33 31 40 40 36 31 26 21 17 14 9 4 0 2 4 6 8 10 12 15
6 6 8 11 9 1 1 3 2 2 2 2 3 3 5 6 4 6 7 11 13 25 28 29 31 30 35 36 33 30 24 21 17 12 8 5 2 0 3 6 9 11 12 15
2 0 3 3 2 3 2 2 3 2 3 4 3 1 5 6 7 6 8 9 11 19 24 28 32 30 32 32 29 25 24 20 15 12 9 5 3 1 3 6 7 9 11 13
1 3 3 3 4 3 3 3 4 2 2 3 3 2 5 7 7 9 9 11 15 20 22 29 30 29 33 31 26 25 22 19 16 12 8 5 2 1 3 5 6 7 7 9
4 4 2 2 1 4 3 5 3 1 2 4 4 2 2 4 8 7 7 12 18 21 24 25 27 31 33 30 26 23 20 17 14 11 8 5 2 1 3 5 5 4 6 7
Wind_Direction
216 165 194 181 148 193 148 200 169 308 183 133 192 185 211 207 205 172 181 165 170 157 139 125 136 154 176 189 192 198 197 194 194 193 201 213 218 223 229 237 247 256 257 251
203 216 179 166 186 220 173 194 165 5 44 126 178 229 220 194 216 187 170 170 161 151 135 112 123 169 182 182 181 193 196 197 199 206 202 213 220 230 238 246 253 258 260 265
202 215 179 189 186 204 187 184 187 161 143 1 109 312 218 208 144 131 114 134 146 163 146 119 104 103 189 213 209 194 190 201 204 204 196 204 210 222 226 240 254 265 272 281
220 235 186 175 209 168 214 174 146 136 122 199 148 252 246 198 187 197 191 158 147 119 111 109 107 97 130 213 207 197 192 183 201 211 197 202 212 206 226 222 227 272 285 286
203 173 185 178 189 165 193 134 144 132 121 113 188 110 255 139 195 218 209 193 174 146 135 128 123 117 100 136 170 168 169 141 180 196 198 186 185 193 195 185 175 114 93 88
176 219 146 186 89 151 137 91 55 63 77 282 216 167 257 189 203 165 181 166 146 139 119 119 121 117 107 106 125 133 142 126 133 162 177 176 159 151 129 142 167 145 148 58
106 36 300 173 87 5 116 106 61 43 306 218 0 184 242 223 215 181 171 160 153 143 132 129 123 116 108 107 110 116 127 115 127 132 133 139 145 145 124 121 113 104 93 74
148 195 188 194 169 171 175 152 151 170 188 223 333 223 247 292 281 147 150 152 151 151 145 136 130 122 115 112 113 117 118 114 121 123 121 123 124 122 113 109 101 90 79 70
158 164 144 71 43 152 217 181 165 100 33 74 213 282 308 72 106 129 146 150 151 149 146 133 129 128 123 121 119 120 117 116 118 120 120 117 117 115 108 103 98 90 83 72
182 117 19 313 113 7 172 157 102 15 134 237 274 251 224 197 191 169 165 161 159 146 136 137 137 133 128 126 124 124 121 118 119 120 119 116 112 109 106 103 92 80 70 57
105 98 183 135 205 173 150 187 160 127 145 164 169 254 219 197 183 180 173 169 162 152 150 142 141 140 135 133 130 128 125 123 122 121 120 118 113 108 101 92 83 66 50 37
108 108 141 202 230 267 119 203 157 169 211 152 159 262 194 199 183 173 171 164 157 156 152 149 147 145 144 140 139 136 133 129 127 126 122 116 112 105 94 82 68 55 42 32
172 118 88 17 354 332 213 205 174 113 85 197 151 253 310 153 152 170 164 163 158 155 155 157 151 151 150 149 144 142 136 130 129 127 122 116 108 97 82 67 54 39 33 26
101 140 164 185 194 144 192 194 187 143 129 179 224 209 221 177 171 168 171 162 162 164 167 164 160 163 158 155 151 146 139 137 133 128 122 112 102 90 77 63 47 31 22 13
127 192 173 74 131 150 192 182 168 193 219 189 234 199 216 199 186 188 173 162 164 171 173 172 172 166 162 158 155 150 146 144 142 134 124 110 101 89 70 52 35 22 13 6
74 175 117 115 10 130 133 197 199 211 220 246 213 265 199 197 149 164 176 170 178 182 179 177 173 168 167 162 159 157 152 148 147 136 122 115 106 82 53 37 22 9 2 356
154 146 102 251 9 90 336 214 193 222 218 217 227 239 151 179 184 183 180 184 189 187 180 180 176 173 168 166 164 160 155 152 149 140 131 121 98 69 45 24 7 359 356 350
179 193 160 232 26 227 243 158 187 204 215 224 244 263 181 192 201 189 191 188 191 185 183 180 174 169 166 169 168 159 157 156 152 144 133 117 96 66 31 9 3 356 353 353
41 134 147 161 191 285 261 221 184 171 247 194 227 233 200 173 99 248 204 198 192 189 186 178 172 164 164 168 167 162 160 158 154 148 140 127 103 53 17 3 0 359 354 353
58 44 127 145 168 213 282 175 150 89 258 206 218 222 183 143 197 234 199 198 187 177 172 163 158 156 162 169 168 165 163 163 159 152 146 136 105 27 8 3 360 357 350 349
133 111 201 167 220 276 223 142 135 156 250 196 195 212 188 194 219 238 142 149 159 155 153 152 155 158 163 170 170 168 166 167 163 157 155 154 110 9 358 6 358 353 352 351
177 172 191 136 181 256 152 61 176 214 316 166 233 210 189 192 109 135 143 143 146 145 150 156 153 156 167 171 172 170 171 169 167 166 160 152 198 358 345 355 353 357 352 351
201 195 193 192 225 74 306 18 105 137 128 0 328 9 155 143 154 131 136 143 150 152 153 155 152 151 166 173 178 172 174 173 171 166 163 176 196 350 343 351 353 359 358 355
289 292 145 81 311 296 281 352 337 24 50 353 329 268 170 158 154 135 137 142 147 150 150 150 149 153 164 176 181 182 174 176 175 173 176 185 185 177 3 358 352 356 355 341
201 117 149 283 254 245 255 233 250 183 89 356 347 292 222 158 170 160 154 157 158 154 154 159 160 161 169 175 177 179 179 179 179 181 179 186 193 358 2 357 355 351 344 322
188 169 175 215 215 100 327 331 346 30 348 238 222 234 185 192 168 152 161 165 159 159 158 159 163 166 173 177 179 181 184 186 188 184 182 192 202 311 333 323 321 343 349 334